This is the latest recevied weather packets stored in our database for station/object KB0BS-13. If no packets are shown the sender has not sent any weather packets the latest 10 day(s).
| Time | Temp. | Humidity | Pressure | Rain* | Wind** | Luminosity | Snow |
|---|---|---|---|---|---|---|---|
| 1777317718 | 16.67° C | 56% | 1014.4 hPa | 0 mm | - | 581 W/m² | - |
| 1777317415 | 16.67° C | 55% | 1014.3 hPa | 0 mm | - | 569 W/m² | - |
| 1777317110 | 16.67° C | 55% | 1014.4 hPa | 0 mm | - | 585 W/m² | - |
| 1777316807 | 17.22° C | 56% | 1014.6 hPa | 0 mm | - | 613 W/m² | - |
| 1777316504 | 16.67° C | 55% | 1014.7 hPa | 0 mm | - | 635 W/m² | - |
| 1777316201 | 16.67° C | 56% | 1014.7 hPa | 0 mm | - | 640 W/m² | - |
| 1777315899 | 16.67° C | 57% | 1014.9 hPa | 0 mm | - | 629 W/m² | - |
| 1777315597 | 16.67° C | 57% | 1015.1 hPa | 0 mm | - | 585 W/m² | - |
| 1777315295 | 16.67° C | 58% | 1015.4 hPa | 0 mm | - | 596 W/m² | - |
| 1777314992 | 16.67° C | 58% | 1015.3 hPa | 0 mm | - | 609 W/m² | - |
| 1777314687 | 16.67° C | 58% | 1015.3 hPa | 0 mm | - | 632 W/m² | - |
| 1777314384 | 16.67° C | 56% | 1015.2 hPa | 0 mm | - | 635 W/m² | - |
| 1777314081 | 16.67° C | 57% | 1015.3 hPa | 0 mm | - | 647 W/m² | - |
| 1777313779 | 16.67° C | 56% | 1015.5 hPa | 0 mm | - | 646 W/m² | - |
| 1777313477 | 16.11° C | 58% | 1015.7 hPa | 0 mm | - | 660 W/m² | - |
| 1777313174 | 16.11° C | 56% | 1015.9 hPa | 0 mm | - | 658 W/m² | - |
| 1777312870 | 16.67° C | 57% | 1016.2 hPa | 0 mm | - | 672 W/m² | - |
| 1777312566 | 16.11° C | 55% | 1016.1 hPa | 0 mm | - | 676 W/m² | - |
| 1777312263 | 16.11° C | 56% | 1016.5 hPa | 0 mm | - | 686 W/m² | - |
| 1777311960 | 16.67° C | 55% | 1016.2 hPa | 0 mm | - | 687 W/m² | - |
| 1777311657 | 16.67° C | 55% | 1016.5 hPa | 0 mm | - | 679 W/m² | - |
| 1777311355 | 16.11° C | 57% | 1016.6 hPa | 0 mm | - | 690 W/m² | - |
| 1777311052 | 16.67° C | 56% | 1016.7 hPa | 0 mm | - | 694 W/m² | - |
| 1777310750 | 16.11° C | 55% | 1016.6 hPa | 0 mm | - | 642 W/m² | - |
| 1777310447 | 16.11° C | 55% | 1016.8 hPa | 0 mm | - | 695 W/m² | - |
* Rain latest hour (hover to see other rain measurements)
** Current wind speed in m/s (hover to see current wind gust speed)